{"data":{"norad_id":64753,"intl_designator":"2025-145A","name":"SHIYAN-28B 01","alt_names":[],"object_type":"PAYLOAD","status":"ACTIVE","operator":null,"country":"PRC","launch_date":"2025-07-03","launch_site_code":"XICLF","launch_vehicle":null,"mission":null,"orbit_class":"UNKNOWN","rcs_meters":null,"size_class":null,"mass_kg":null,"dimensions":null,"purposes":[],"wikipedia_slug":null,"has_3d_model":false,"image_url":null,"decayed_at":null,"tle_current":{"epoch":"2026-05-25T04:19:18.327072Z","epoch_age_seconds":55636,"freshness":"FRESH","line1":"1 64753U 25145A   26145.18007323  .00000568  00000+0  52435-4 0  9995","line2":"2 64753  10.9982 116.4390 0003179 215.4144 144.5873 14.29388480 46617","mean_motion":14.2938848,"eccentricity":0.0003179,"inclination_deg":10.9982,"raan_deg":116.439,"arg_perigee_deg":215.4144,"mean_anomaly_deg":144.5873,"bstar":5.2435e-5,"rev_number":4661,"period_min":100.74238180512,"perigee_km":791.49566789635,"apogee_km":796.05556993946,"semimajor_km":7171.9126189179,"source":"CELESTRAK","updated_at":"2026-05-25T13:38:04.751103Z"}}}